Theta_e
332 331 333 330 329 329 326 317 302 307 305 300 299 299 298 305 301 300 301 302 301 306 307 306 304 305 305 304 307 308 304 306 309 302 303 309 310 308 310 311 312 314 315 318 322 327 332 332 332 334 335 336 336 336 336 337 338 338 339 340 340 341 342 342 342 342 343 343 343 345 346 345 346 345 345 346 345 345 346 345 345 345 345 346 346 347 346 346 347 347 347 347 347 347 346 347 348
330 331 330 331 328 325 315 312 306 302 302 298 299 300 301 302 302 300 301 302 305 306 308 308 308 308 307 308 309 309 307 308 309 307 308 309 307 307 309 309 310 311 314 317 321 326 330 331 330 332 333 334 334 334 334 335 335 336 336 337 337 337 337 338 339 339 340 340 341 341 344 345 345 345 345 345 346 345 345 345 344 344 345 346 346 346 346 346 346 346 347 347 347 346 347 347 347
329 329 328 328 325 322 318 312 301 301 299 296 299 299 301 300 300 302 303 304 306 308 308 307 307 306 305 305 304 304 304 307 308 307 307 309 306 304 307 309 309 310 314 317 320 325 328 328 328 330 331 331 332 332 332 332 333 333 333 333 333 333 334 335 336 337 337 337 338 339 340 340 340 340 340 343 343 344 344 343 343 343 344 344 346 347 347 345 346 346 347 346 347 346 346 346 347
330 330 328 326 317 319 312 308 304 301 298 300 299 301 300 301 302 303 304 307 307 306 306 304 304 303 304 303 305 305 307 307 308 307 306 307 306 305 306 307 307 310 313 315 319 323 325 326 327 328 329 330 330 330 330 330 330 330 330 330 330 330 331 331 333 333 333 333 334 335 335 335 335 335 336 338 340 339 339 339 339 340 342 343 345 345 346 345 346 346 346 346 345 344 344 345 346
328 326 329 324 319 311 311 307 303 302 297 301 298 301 301 303 303 302 305 307 305 304 303 304 303 303 302 303 304 306 307 307 307 308 307 306 306 306 305 307 306 308 310 312 316 321 324 323 325 326 327 328 328 328 327 328 328 327 327 328 328 328 328 329 329 330 330 330 330 331 330 331 331 331 332 334 333 333 333 333 334 334 335 337 339 342 343 344 345 345 345 346 345 343 342 342 343
325 323 324 325 315 310 308 302 301 299 303 303 301 301 303 304 303 304 304 305 304 302 302 303 304 302 302 303 303 305 307 306 307 306 307 305 306 306 305 306 304 306 308 311 315 319 322 322 323 324 325 326 326 326 325 326 326 326 325 325 326 326 326 326 326 327 327 327 327 327 327 327 327 327 328 329 329 328 328 328 329 330 331 332 334 335 337 339 340 341 342 343 344 342 340 341 341
321 319 317 314 310 310 304 302 301 302 303 302 302 302 303 303 304 305 303 302 303 302 303 303 303 304 303 302 302 302 305 305 306 306 307 307 306 304 304 302 304 304 307 309 312 316 318 320 322 323 323 324 324 324 324 324 324 324 323 323 324 324 324 324 324 324 324 324 324 324 324 324 324 325 325 325 325 324 324 326 327 328 328 328 328 329 331 333 334 336 337 339 341 339 340 339 340
319 316 314 309 306 304 301 302 302 303 301 300 300 301 304 304 305 304 302 302 301 300 302 303 304 303 301 302 303 302 305 306 307 307 306 304 305 304 304 302 302 302 303 306 310 313 314 316 319 320 321 322 322 322 323 322 322 322 322 322 322 321 322 322 322 322 321 321 322 322 322 322 322 322 322 322 322 322 322 323 325 325 326 325 326 326 327 329 330 332 333 334 337 337 338 336 339
318 315 312 309 303 303 301 300 302 301 301 299 301 300 307 305 306 305 302 304 302 303 302 302 303 300 302 301 303 302 303 305 304 305 304 304 303 303 303 302 301 302 303 303 306 310 313 312 315 318 318 319 320 320 321 321 320 320 320 320 320 319 319 319 319 319 318 319 319 319 319 319 319 319 319 319 319 319 319 321 323 323 323 323 323 324 324 326 327 329 330 330 330 330 331 334 336
313 312 307 307 306 300 301 301 298 301 301 301 300 301 302 304 304 305 304 302 303 302 303 304 302 301 302 302 301 302 303 304 303 303 303 303 303 302 301 302 303 303 302 302 304 305 307 308 310 313 316 316 317 318 318 318 318 318 318 318 317 317 317 317 317 317 317 316 316 316 316 317 317 317 317 317 317 317 317 319 320 321 321 321 321 322 323 323 324 326 326 326 326 327 327 328 329
308 310 310 304 301 299 299 299 301 301 300 300 300 301 303 303 304 303 304 303 303 303 300 301 299 300 301 301 303 303 304 302 301 300 302 302 303 302 300 302 303 303 301 304 303 303 304 305 306 309 311 313 314 315 315 316 316 316 316 316 316 315 315 315 315 315 314 314 314 314 314 314 314 314 315 315 314 314 315 316 318 318 319 318 319 319 320 320 322 323 323 323 323 324 325 325 324
307 307 308 302 300 300 301 300 301 302 300 300 300 301 303 303 303 301 302 301 301 301 301 300 302 304 300 300 303 301 301 300 301 301 301 302 301 301 300 300 302 301 303 302 302 302 302 304 304 303 306 309 310 311 312 313 313 314 313 313 313 313 313 312 312 312 312 312 311 311 311 311 312 312 313 312 312 312 313 313 315 317 316 316 317 317 318 318 319 319 320 320 321 322 322 322 321
309 309 305 301 301 301 301 298 301 300 301 300 301 300 303 302 301 303 303 303 302 301 301 303 302 304 301 301 301 300 299 300 301 301 301 300 301 301 302 300 301 301 301 303 302 302 303 302 302 302 302 303 306 308 309 310 311 311 311 311 311 310 310 310 310 310 310 309 308 308 307 307 307 308 309 310 309 309 310 310 312 314 314 314 314 315 315 315 316 316 317 318 318 319 319 319 318
308 310 307 301 299 300 299 301 299 299 299 302 302 299 302 301 303 303 304 301 302 302 301 304 302 303 301 300 298 299 299 301 300 301 300 301 301 301 301 301 302 300 302 301 300 301 301 301 301 302 302 302 303 305 305 306 307 308 308 308 308 308 308 307 306 307 307 306 305 304 304 304 304 305 306 307 307 306 307 307 309 311 312 312 312 313 313 313 313 314 315 315 316 316 316 315 314
309 307 306 304 301 298 301 298 300 299 301 302 299 299 300 301 298 301 303 302 303 301 299 303 304 301 300 299 301 300 300 301 300 301 301 300 300 300 301 301 301 302 300 299 300 300 299 300 300 302 302 302 302 303 304 303 304 305 305 306 305 305 305 304 304 303 303 303 302 302 302 301 301 302 303 303 305 304 304 303 305 308 309 310 310 311 311 311 311 312 313 313 313 314 313 312 312
312 308 306 302 299 298 300 299 296 298 300 301 298 300 301 298 298 300 302 300 302 301 301 300 301 301 300 302 299 303 302 300 301 301 300 299 300 300 300 299 298 299 301 300 299 300 300 300 301 301 301 301 301 301 303 301 301 302 302 303 303 302 302 302 302 301 300 299 299 299 299 301 301 301 301 302 301 302 301 301 303 306 307 308 307 308 308 309 309 310 311 311 312 312 311 309 310
310 311 301 300 297 297 301 299 298 298 302 300 297 299 299 298 297 298 297 298 300 299 298 300 301 298 299 299 298 302 301 301 302 300 299 298 298 296 297 298 298 298 299 299 299 298 300 299 299 300 300 300 300 300 301 301 300 300 301 300 300 300 300 299 299 299 299 299 299 299 301 301 301 301 301 301 301 300 299 300 301 303 305 305 305 306 306 307 307 308 309 309 310 309 307 307 308
311 304 302 299 301 299 303 300 301 301 301 300 297 299 301 298 296 298 298 298 298 298 298 299 298 297 298 299 299 303 301 300 299 298 297 297 297 295 295 296 297 296 298 298 298 298 298 299 299 299 299 300 300 300 301 301 301 300 301 301 300 300 299 298 299 300 299 300 299 300 300 299 300 300 300 299 301 300 300 298 299 301 302 302 302 304 304 304 305 307 307 308 307 307 306 307 308
306 303 302 298 302 303 302 303 303 301 301 301 300 299 300 301 299 298 298 298 297 297 297 298 298 299 298 297 298 300 300 298 298 298 297 297 296 294 295 296 296 296 297 297 297 297 299 298 298 298 299 299 300 300 301 300 300 301 300 300 300 299 299 299 300 299 300 300 300 300 299 299 300 300 298 298 299 297 298 297 298 299 300 300 300 301 301 302 304 304 305 305 305 304 305 306 306
304 303 299 300 305 303 300 301 301 301 300 299 299 299 298 299 301 299 298 300 297 298 299 297 297 299 299 298 298 299 299 298 298 297 297 297 296 295 295 296 295 296 297 297 297 298 298 298 299 299 298 299 300 300 300 300 300 300 300 300 300 300 299 299 299 299 299 299 299 299 298 299 299 299 298 297 299 299 300 298 297 297 298 299 298 300 300 301 302 302 303 303 303 304 304 304 304
304 300 300 301 301 301 302 300 301 300 300 300 300 298 297 298 300 299 299 298 297 299 303 302 300 300 301 298 298 299 298 298 298 297 297 297 297 297 296 296 296 296 297 297 297 296 297 297 298 298 299 299 299 299 300 299 300 299 299 299 299 298 299 299 298 299 298 298 298 298 298 298 299 299 299 298 298 298 299 298 299 298 299 299 298 299 299 300 300 301 301 302 302 302 302 303 304
303 301 300 300 299 300 302 300 299 299 297 299 298 297 298 299 297 298 299 298 300 302 303 304 305 305 301 297 298 299 298 298 297 297 297 296 296 295 296 297 297 297 297 296 296 296 297 297 298 297 297 298 299 299 299 297 299 299 299 299 298 298 299 298 298 298 297 297 297 297 297 298 298 298 298 297 297 297 297 297 297 297 297 297 297 298 298 298 299 299 299 300 300 301 301 302 302
300 301 299 299 301 300 300 299 297 297 298 298 297 300 298 297 298 299 299 300 302 299 301 303 304 304 302 300 299 298 298 298 297 297 297 296 296 296 296 296 295 295 296 296 296 296 296 296 297 298 297 297 298 298 298 298 298 298 298 298 298 297 298 298 296 296 296 296 296 296 296 296 296 296 296 296 296 296 296 296 295 296 296 296 296 296 296 296 296 296 297 298 298 299 300 301 301
299 301 300 300 299 299 299 299 295 296 298 299 299 298 298 298 296 299 297 300 303 299 298 297 300 302 300 298 298 298 298 298 298 298 298 297 297 296 296 295 295 296 296 296 296 295 296 296 296 297 296 297 297 297 297 297 297 298 297 297 297 295 297 296 296 295 296 295 295 295 295 295 295 295 295 295 294 296 295 295 296 295 295 295 295 295 294 294 294 295 295 296 297 298 298 299 300
299 299 300 299 297 299 298 297 296 296 296 296 296 297 298 299 299 294 297 300 302 301 297 296 298 299 298 299 298 298 298 299 298 298 299 298 298 298 297 297 296 297 296 295 295 295 296 296 295 295 296 295 296 297 296 297 297 297 297 297 296 295 297 295 295 296 295 295 294 294 294 294 294 294 294 294 294 294 295 295 294 294 294 294 294 294 294 293 293 293 294 294 295 296 297 298 298
301 301 300 299 299 299 297 297 296 296 297 296 297 298 297 296 297 295 299 301 302 302 298 297 297 297 297 298 298 298 298 298 299 297 297 298 298 296 297 296 295 295 296 295 296 295 296 295 295 295 295 296 296 296 297 296 297 296 296 296 295 296 296 295 295 294 294 294 293 293 293 293 293 292 293 293 293 293 294 294 294 293 293 293 293 293 292 292 292 292 293 294 294 294 295 296 297
301 300 299 299 300 297 298 298 297 295 297 297 297 299 298 295 296 298 300 298 301 299 298 297 297 297 297 297 298 298 298 298 298 298 297 297 296 296 296 297 295 295 295 295 295 295 296 295 295 295 296 296 297 296 297 295 296 295 295 295 296 295 295 295 294 294 294 293 293 293 293 292 292 293 292 292 292 292 293 293 293 293 293 293 293 292 293 292 292 292 292 292 293 293 294 295 296
299 299 297 298 299 298 298 297 297 297 298 296 298 298 297 295 297 297 299 294 297 297 297 295 296 297 297 297 297 298 298 299 298 297 295 295 295 295 295 295 295 295 295 295 295 296 295 295 295 295 295 295 296 295 296 296 295 295 295 295 294 295 295 294 294 293 293 293 293 292 292 292 292 292 292 292 292 292 292 292 292 292 292 292 292 292 291 292 292 292 293 293 293 293 293 294 296
296 296 297 298 298 298 299 298 297 296 298 296 298 296 295 295 295 300 298 294 295 297 296 295 295 296 298 297 296 296 297 297 297 296 296 296 296 296 295 296 295 294 296 296 295 296 295 295 294 294 295 295 294 294 295 295 294 294 294 294 294 294 294 294 293 293 292 293 292 292 291 291 291 291 291 291 291 291 291 291 291 292 292 291 291 291 291 292 292 292 292 292 292 293 293 294 295
297 298 297 298 299 298 297 295 295 295 297 296 297 292 298 298 299 301 295 295 294 294 296 296 295 295 296 296 296 296 296 296 295 296 296 296 296 296 296 296 296 295 295 295 296 294 295 296 296 295 295 294 295 294 294 294 294 294 293 294 293 293 293 293 292 293 292 292 292 291 291 291 290 291 291 290 290 290 290 290 290 290 291 291 291 291 290 290 290 291 291 291 291 291 292 292 292
297 296 297 297 296 297 295 297 295 296 296 295 297 293 297 301 302 303 297 296 295 296 297 296 295 295 295 295 295 295 296 296 296 296 296 297 297 296 296 296 295 295 296 295 294 294 295 296 295 294 295 295 294 294 294 294 294 294 293 293 293 293 293 292 292 292 291 292 291 291 291 290 290 290 290 289 289 289 289 289 290 290 290 290 289 290 289 290 290 290 290 289 290 291 291 291 291
297 295 295 296 294 297 296 295 295 297 294 296 297 293 296 300 302 299 296 294 295 296 298 297 296 295 294 294 294 294 295 296 295 296 296 296 296 296 296 295 295 295 295 295 294 295 294 295 295 295 295 295 294 294 294 294 293 293 293 293 292 293 292 292 291 291 291 291 291 291 291 290 289 289 289 289 288 289 288 288 289 289 289 289 289 289 289 289 289 289 290 290 289 289 289 289 290
297 295 296 296 295 296 296 297 296 296 295 295 296 295 298 299 299 294 292 293 293 294 296 298 296 295 294 294 294 294 294 294 295 294 295 295 295 295 295 295 294 295 295 294 294 294 293 294 294 295 294 294 294 293 294 293 292 292 291 292 291 291 291 291 291 291 291 291 290 290 290 290 289 289 289 289 288 288 288 288 288 289 289 288 288 288 288 289 288 288 289 289 289 288 288 288 289
297 296 294 299 294 296 294 295 294 294 295 295 295 293 296 299 298 293 291 293 293 293 295 296 297 295 295 295 294 294 293 294 293 294 294 294 294 294 294 295 295 295 295 294 295 294 293 294 294 294 294 294 293 293 292 292 292 292 291 291 291 290 291 291 291 290 290 290 290 289 290 289 289 289 288 288 288 288 288 288 288 288 288 288 288 288 288 288 288 288 287 288 288 287 287 287 287
296 296 294 295 295 293 294 295 294 293 293 293 295 294 295 298 300 300 296 293 294 295 296 297 297 296 295 294 294 293 294 294 294 295 295 294 294 293 294 294 294 294 294 294 294 294 294 294 294 294 294 293 293 293 292 292 291 291 291 291 290 290 290 290 290 289 290 290 290 290 289 289 288 288 288 288 287 287 287 287 287 288 287 287 287 287 287 288 288 288 287 287 288 288 287 287 286
296 296 295 295 293 295 294 296 293 294 294 292 293 292 295 296 298 300 301 296 296 296 298 297 297 296 296 295 294 294 294 294 296 296 296 295 294 293 293 293 294 294 293 293 293 294 293 294 294 293 293 293 292 292 292 291 290 290 289 289 289 289 290 289 290 289 290 289 289 289 289 289 288 288 287 287 287 286 286 286 287 287 287 287 286 286 286 286 286 286 286 286 286 286 287 287 287
296 297 295 295 296 296 297 294 292 292 292 294 295 295 295 296 297 299 301 299 295 296 296 297 297 296 296 295 294 294 294 294 298 296 296 295 294 293 293 293 293 293 293 292 292 293 293 292 292 292 293 292 292 291 290 290 290 289 289 289 289 289 289 289 289 289 289 289 289 288 288 288 288 287 287 287 286 286 285 286 286 286 287 286 285 285 286 286 286 286 285 285 285 284 285 287 287
296 296 295 295 297 293 296 293 291 293 292 294 296 294 293 295 297 298 299 299 297 297 297 297 297 297 297 296 295 294 295 297 296 295 295 295 294 294 293 292 292 291 291 291 292 292 292 292 292 292 292 292 291 291 291 290 291 290 289 289 289 289 288 288 288 289 289 289 288 288 288 288 287 287 286 287 286 286 285 285 285 285 286 285 285 285 285 285 285 285 285 284 286 284 284 286 286
294 295 295 293 295 296 297 292 291 291 291 291 294 292 293 295 297 299 299 298 299 301 301 300 299 299 297 296 296 295 295 295 295 294 295 294 294 293 292 292 292 292 292 291 292 292 292 291 292 292 292 291 291 291 291 290 290 290 289 289 288 288 289 289 289 289 288 288 288 288 288 287 287 286 287 286 285 285 285 284 285 285 285 285 284 284 285 284 285 285 284 283 283 285 284 286 285
294 293 293 292 296 292 293 292 289 290 291 292 292 290 292 295 297 297 299 299 299 301 301 301 301 299 299 298 297 296 295 295 294 294 293 293 293 292 292 291 291 291 291 291 291 291 291 292 291 292 291 291 291 291 290 291 290 289 289 289 288 288 287 288 288 287 287 287 286 287 287 287 286 286 286 286 285 285 285 284 284 284 284 285 284 283 284 284 284 284 284 284 283 281 283 284 286
295 296 296 295 295 295 292 293 290 291 291 288 290 291 293 295 295 297 295 295 296 298 298 298 300 301 301 301 299 298 296 296 295 295 293 292 291 291 291 291 291 291 291 291 291 291 291 291 291 292 291 291 291 290 290 290 288 287 287 287 287 286 286 286 286 286 287 287 286 286 286 287 286 285 285 285 285 284 284 284 284 284 284 284 284 283 283 283 284 284 284 283 283 282 281 283 284
295 295 295 297 297 294 292 291 292 292 292 291 290 287 289 296 296 296 297 294 294 295 295 297 298 299 298 297 297 298 298 298 297 295 294 293 292 292 292 292 291 291 291 291 292 291 291 291 291 291 291 291 290 290 290 289 288 287 286 285 284 285 285 285 285 286 287 286 286 287 287 286 285 285 285 285 284 284 284 284 284 283 283 283 283 283 283 283 283 283 284 283 282 283 282 281 281
292 295 295 296 295 293 291 290 291 289 287 291 291 286 284 293 293 295 295 294 295 297 297 300 301 299 298 297 297 297 298 297 297 297 295 293 292 292 291 291 291 291 291 292 292 291 291 291 291 291 291 290 290 289 289 289 287 287 287 286 287 287 286 288 288 287 286 286 286 285 285 286 285 285 285 284 284 284 283 283 283 283 283 283 283 282 282 282 283 283 283 283 282 283 282 280 280
292 290 290 291 292 291 292 291 291 290 291 291 290 292 286 286 292 296 297 295 296 297 298 301 302 303 299 297 297 298 298 298 297 296 295 294 293 292 291 291 291 291 291 292 291 291 290 291 291 290 290 290 290 289 289 288 287 287 286 286 286 286 286 286 286 285 285 285 284 284 285 285 285 284 284 284 283 283 283 283 283 283 282 283 282 282 282 282 283 283 283 283 282 282 281 280 280
293 288 291 292 293 293 291 292 291 290 286 285 289 292 286 286 291 295 296 293 295 296 298 300 301 304 304 301 298 298 298 298 297 296 295 295 293 293 292 292 292 292 291 291 290 291 291 291 291 290 290 289 289 289 288 287 287 287 286 286 285 286 286 286 285 285 284 285 284 284 284 284 283 283 283 283 283 283 282 282 282 282 282 282 282 282 282 282 282 281 281 281 281 281 281 281 280
289 288 289 289 290 289 291 290 289 288 285 283 287 290 285 286 290 289 290 293 294 296 298 300 302 303 305 302 299 298 298 298 298 297 297 296 295 294 293 293 292 291 291 292 291 291 291 291 290 289 289 289 289 288 288 287 287 286 285 285 285 285 285 285 284 284 284 284 282 283 283 283 283 283 283 283 283 282 282 282 282 281 281 281 281 281 281 281 281 281 281 281 281 280 281 281 280
290 291 293 291 290 290 288 288 288 286 282 285 290 290 289 284 291 291 288 292 295 297 299 300 301 302 301 300 300 300 298 297 297 297 297 297 296 295 293 292 292 291 291 291 291 290 290 290 289 289 288 288 288 287 287 286 286 286 285 285 285 284 284 284 283 283 282 282 282 282 282 282 282 282 282 282 282 282 282 281 281 281 281 281 280 281 280 280 281 281 281 281 280 280 279 280 280
292 292 291 292 290 287 287 286 286 282 282 288 289 290 290 282 288 292 295 296 298 299 298 299 300 300 301 302 299 298 298 297 297 296 296 296 295 294 293 291 291 290 290 289 290 290 290 290 289 288 288 288 288 287 287 286 286 286 285 285 284 284 284 283 282 282 282 282 282 281 282 281 281 282 282 281 281 282 281 281 281 280 280 280 280 280 280 280 280 280 280 280 280 280 280 279 279
291 292 291 287 286 286 284 284 280 281 282 285 283 288 286 285 290 294 295 296 296 297 299 300 300 301 303 302 300 298 298 297 296 296 296 295 294 293 292 291 291 290 289 289 289 289 289 289 288 287 287 287 287 287 286 286 286 285 285 284 284 284 283 283 282 282 282 281 281 281 280 280 281 281 281 280 281 281 280 280 280 280 280 280 280 280 280 280 280 279 279 279 279 279 279 279 278
290 290 289 286 283 282 278 283 282 282 286 284 284 287 283 289 292 296 295 297 298 299 298 299 300 301 303 303 299 296 297 297 296 296 296 295 295 294 293 291 290 290 289 289 289 289 289 288 288 287 287 287 286 286 286 285 285 285 285 284 283 283 282 282 282 281 281 281 281 280 280 280 280 280 280 280 280 280 280 280 279 279 279 279 279 279 279 279 279 279 279 278 278 279 279 279 278
290 295 292 289 287 283 279 283 281 283 285 283 285 282 283 284 289 296 298 298 299 300 300 301 299 299 300 297 295 296 296 295 296 296 296 296 295 294 293 292 291 290 289 289 289 289 288 288 287 287 287 286 286 286 285 285 284 284 284 284 283 283 282 281 281 281 281 280 280 280 280 280 279 279 279 280 280 279 279 279 279 279 279 279 279 279 279 279 279 279 278 278 278 279 278 278 278
291 292 293 288 287 290 284 285 283 283 282 283 280 283 290 290 293 295 292 296 297 299 299 300 298 298 299 297 295 295 295 295 295 295 295 295 295 294 293 292 291 290 289 289 288 288 288 287 287 287 287 286 286 285 285 284 284 284 283 282 282 282 281 281 281 281 280 280 280 279 279 279 279 279 279 279 279 279 278 278 278 278 278 278 278 278 278 278 278 278 278 278 277 278 277 277 278
289 289 286 289 292 291 287 284 280 278 281 281 288 285 289 294 293 293 294 293 295 296 297 297 298 299 300 299 299 298 297 297 296 295 295 295 294 293 293 292 291 290 289 288 288 288 288 287 287 286 287 286 285 285 285 284 284 283 282 282 281 281 280 280 280 280 279 279 279 279 278 278 278 278 278 278 278 278 278 278 278 278 278 278 278 278 278 278 277 277 277 277 276 277 277 277 277
288 285 289 290 294 293 287 282 284 283 280 282 286 284 286 287 285 291 293 291 293 294 295 295 296 298 297 299 300 300 300 299 297 296 295 294 294 293 292 292 291 290 289 289 288 289 288 288 287 286 286 285 285 285 284 284 283 282 282 281 281 280 280 279 279 279 279 278 278 278 278 278 277 278 278 277 278 277 277 277 277 277 277 277 277 277 277 277 277 277 277 276 277 277 276 277 277
289 288 294 289 284 283 286 284 277 278 278 280 285 287 287 288 289 287 289 289 291 293 295 294 294 295 296 297 299 299 299 298 296 294 293 293 292 292 292 291 291 291 290 289 289 288 288 288 287 287 286 286 285 285 284 283 283 282 281 281 280 279 279 279 279 278 278 277 277 277 277 277 277 277 277 277 277 277 277 276 276 276 276 276 277 276 276 276 276 276 276 276 276 276 276 275 276
290 289 287 288 289 287 284 285 285 285 281 281 281 286 284 293 293 292 292 292 294 294 294 295 296 296 296 297 298 299 299 299 298 296 294 293 292 292 291 291 290 290 289 289 288 288 287 287 287 286 286 286 285 284 283 282 282 281 280 280 280 279 279 278 278 277 277 277 277 276 276 276 276 277 277 277 276 276 276 275 276 276 275 275 275 275 276 275 275 275 274 274 275 275 274 274 274
284 286 286 286 287 287 288 286 284 284 282 282 281 280 285 292 295 294 294 294 294 295 295 297 297 297 298 298 299 300 300 300 299 297 295 293 292 291 291 291 290 290 289 289 288 287 287 287 286 286 285 284 284 283 282 282 281 280 279 279 278 278 277 277 277 277 276 276 276 276 276 276 276 276 276 276 275 275 275 275 275 275 274 274 274 274 274 274 274 273 274 274 274 273 273 273 274
289 287 286 287 284 283 280 280 284 282 283 280 280 279 286 294 292 295 295 295 296 297 297 297 297 297 297 297 298 298 299 298 297 296 295 293 292 291 290 290 289 288 288 287 287 287 286 286 286 286 285 284 283 282 282 281 280 280 279 278 278 277 277 276 276 275 275 275 275 275 275 275 275 275 275 275 275 275 275 274 273 273 273 273 273 273 273 273 273 272 272 273 273 273 272 272 273
Wind_Speed
2 2 1 1 2 2 3 1 5 3 3 2 2 5 4 4 1 6 6 5 7 3 1 2 1 5 6 2 2 5 3 4 3 5 0 3 3 5 5 4 4 3 4 4 5 5 7 11 11 12 12 13 13 14 14 14 15 15 16 16 16 16 16 16 16 16 16 16 16 16 16 15 15 15 14 14 13 14 15 15 15 14 13 13 12 11 11 11 11 11 12 11 11 12 10 9 7
1 2 2 1 0 2 3 2 3 2 3 2 3 2 5 6 4 9 10 12 2 5 4 3 3 3 4 4 4 2 2 6 5 4 3 4 5 5 5 3 4 3 3 3 4 5 7 9 11 11 12 12 13 14 14 15 15 16 16 16 16 17 16 16 16 16 17 16 16 15 16 17 18 18 18 17 17 16 16 16 16 16 15 14 14 13 13 12 12 12 11 11 12 11 11 11 10
2 2 2 2 2 2 2 2 4 2 4 4 4 5 6 8 9 9 8 7 6 8 8 7 6 3 2 0 4 3 2 2 4 3 4 6 6 4 3 3 2 3 3 4 4 5 6 9 10 11 12 12 13 14 14 15 15 16 16 16 16 17 17 16 17 17 17 17 17 17 18 18 18 17 17 18 18 18 17 17 17 17 17 16 16 16 14 13 13 12 13 13 13 13 13 12 11
0 2 2 2 2 2 3 3 5 4 5 2 1 7 9 9 10 6 5 8 10 10 7 8 8 2 3 10 1 2 2 3 2 4 5 6 3 5 3 3 1 2 4 3 3 5 7 8 10 11 12 12 13 14 14 15 15 15 16 16 16 16 16 17 17 17 17 17 17 17 17 17 18 17 17 17 18 17 17 16 16 16 16 17 17 17 17 15 14 14 14 14 13 14 14 14 13
1 1 3 2 3 3 2 1 2 2 6 3 1 7 10 8 8 7 7 10 10 7 4 5 3 2 3 4 2 3 3 5 4 1 3 4 3 4 3 2 2 3 3 4 4 5 7 10 10 11 12 13 13 14 14 15 15 15 15 16 16 16 16 16 16 17 17 17 17 17 17 17 17 17 17 17 16 16 15 15 15 15 16 17 17 17 18 18 18 16 16 15 13 14 15 15 15
2 1 2 3 3 3 1 3 5 7 2 1 3 4 11 7 9 9 11 9 8 2 2 7 2 7 4 2 1 1 2 4 5 4 5 5 5 5 4 2 4 4 4 5 6 6 7 9 10 11 12 13 14 14 14 15 15 15 16 16 17 16 17 17 17 17 17 17 17 17 17 17 17 16 16 16 16 16 16 16 15 16 15 15 15 17 16 17 17 19 18 18 17 16 15 15 16
2 3 2 2 2 2 4 5 6 5 1 2 2 2 11 8 10 13 11 8 5 4 3 5 2 5 3 3 2 0 3 1 5 4 1 8 7 5 4 4 5 5 5 5 5 6 9 10 10 11 12 13 13 14 14 15 15 16 16 16 17 17 17 17 17 17 17 17 17 17 17 17 17 17 16 16 16 16 16 16 16 15 15 15 15 15 16 16 16 16 16 17 17 17 16 16 16
2 3 2 4 2 2 6 4 6 4 1 2 3 2 8 9 12 12 14 13 9 7 8 4 5 6 3 1 4 4 2 1 3 7 9 8 7 5 3 4 5 6 6 5 5 5 8 10 10 11 12 13 13 14 14 15 15 15 16 16 16 17 17 17 17 17 17 17 17 17 17 17 17 17 16 16 16 16 16 16 16 16 16 15 15 15 16 16 16 16 16 16 17 16 15 15 15
1 1 1 3 5 1 3 5 4 2 2 2 3 2 2 11 13 12 14 9 5 6 7 8 6 7 4 7 2 3 3 4 6 8 9 8 7 6 3 3 6 6 6 5 4 4 6 10 10 11 12 12 13 13 14 14 15 15 15 16 16 16 16 17 17 17 17 17 17 17 17 17 17 16 16 16 16 16 16 16 16 16 16 16 16 16 15 16 16 16 16 16 16 16 15 15 15
2 3 3 2 2 6 3 4 4 1 3 2 2 4 7 8 10 10 14 9 5 6 5 6 4 7 6 6 3 5 5 8 9 9 8 8 7 6 6 5 6 6 6 5 5 5 5 8 11 11 12 12 13 13 13 14 14 15 15 15 15 16 16 16 16 16 16 16 16 16 16 16 16 16 16 16 16 16 16 16 16 16 16 16 16 16 16 16 16 15 16 16 16 16 16 16 15
3 2 2 4 5 5 6 4 5 2 3 1 3 2 6 7 8 8 9 6 4 6 7 5 4 8 5 2 1 4 8 10 11 11 9 8 7 6 6 5 5 4 6 5 4 4 4 6 10 11 11 12 13 13 13 13 14 14 14 14 15 15 15 15 15 16 16 16 16 16 16 16 16 15 16 16 16 16 16 16 16 16 16 16 16 16 16 16 16 16 16 16 16 16 16 16 17
3 3 2 5 6 5 2 5 2 2 1 2 5 6 5 9 7 8 10 8 7 5 8 11 2 8 5 1 3 6 10 11 11 10 10 8 7 6 6 5 5 5 4 4 4 4 4 5 5 8 11 11 12 13 13 13 13 13 14 14 14 14 15 15 15 15 15 15 15 15 15 15 15 15 15 16 16 16 16 16 16 16 16 16 16 16 16 16 16 16 16 16 16 16 16 16 17
3 1 4 4 2 3 1 4 3 0 3 8 7 6 7 10 12 10 10 6 6 7 7 13 4 7 5 5 4 7 12 13 10 11 10 8 7 6 5 6 5 4 4 3 4 4 4 5 5 6 7 10 11 12 12 12 12 13 14 14 14 14 14 15 14 14 14 14 13 13 13 13 14 14 14 14 15 15 15 15 16 15 16 16 16 16 15 15 15 15 15 15 15 16 16 16 17
3 1 2 4 3 2 4 3 0 5 6 5 4 7 11 9 10 5 7 11 9 11 3 7 2 3 4 0 4 8 10 14 12 11 9 8 7 6 6 5 5 4 3 3 5 4 4 5 5 5 5 6 6 8 12 12 12 12 13 13 13 13 14 14 14 14 13 13 12 12 11 11 12 12 12 13 12 13 13 13 14 14 15 15 15 15 15 15 15 15 15 15 15 15 15 16 16
2 1 2 2 1 1 2 5 2 5 4 7 6 10 9 3 2 3 10 13 10 5 3 1 3 3 3 11 5 10 12 17 14 12 10 9 8 7 7 5 6 5 4 4 4 4 5 5 5 4 5 5 5 5 5 8 11 12 12 12 13 13 13 13 13 13 13 12 12 11 10 10 10 12 11 12 12 12 13 11 13 13 13 13 14 14 14 15 15 15 14 14 14 15 15 16 15
1 3 1 4 4 3 2 5 2 2 4 6 6 5 11 3 2 6 5 3 3 2 5 7 6 6 2 6 5 3 15 18 14 12 11 10 8 7 7 7 7 6 5 5 5 4 4 5 4 4 4 4 5 5 5 7 9 10 11 12 12 12 12 12 12 11 11 11 10 9 9 7 8 8 11 9 11 12 13 12 13 13 13 14 14 13 13 14 14 14 14 14 14 14 15 16 14
1 3 4 3 7 4 2 4 5 4 3 4 7 9 12 8 4 2 3 3 4 7 9 3 10 1 4 3 4 1 16 17 14 14 12 9 8 7 7 6 6 5 4 5 4 5 5 5 4 4 4 5 5 5 5 5 5 6 7 9 10 11 10 10 9 9 7 7 7 6 4 6 5 5 6 7 8 8 11 12 13 13 13 13 14 14 14 13 14 14 14 14 14 14 14 15 10
3 4 3 6 3 4 3 7 7 3 1 6 9 10 10 8 6 4 4 4 3 3 9 5 6 7 4 2 2 6 16 17 16 16 13 11 9 8 8 8 7 7 6 6 5 5 5 4 5 4 4 5 5 4 3 3 3 5 5 5 6 6 7 6 7 6 7 6 6 4 5 4 4 4 5 6 4 6 6 9 10 11 11 11 13 13 12 12 14 13 13 14 14 13 13 7 6
3 1 3 6 3 1 0 1 2 2 1 3 8 9 9 5 11 7 7 8 9 8 9 8 9 11 6 5 3 12 17 17 18 17 16 16 12 13 10 8 8 7 7 6 6 6 4 5 4 5 4 5 6 5 3 3 3 3 3 3 3 5 5 6 5 6 6 6 5 5 4 4 4 3 5 5 4 4 4 6 8 8 9 9 12 10 9 9 12 12 12 13 13 11 7 6 6
1 3 5 5 1 3 3 3 4 2 3 4 7 8 6 2 6 7 8 5 8 13 10 9 13 16 15 9 10 13 18 18 18 18 18 16 14 13 11 10 10 9 8 7 7 5 5 4 5 4 4 4 3 3 3 3 2 2 2 2 3 3 4 4 5 5 5 6 5 5 4 5 4 3 4 4 4 4 4 4 6 6 7 7 12 7 8 7 12 9 10 11 8 6 6 6 7
3 3 5 1 2 4 2 5 4 3 2 2 6 4 7 5 5 9 6 6 12 13 15 14 17 19 14 13 13 15 19 19 18 18 17 16 15 11 10 10 9 9 8 7 6 6 6 6 5 5 4 4 4 4 3 2 2 2 2 3 3 3 3 4 4 4 5 5 6 4 4 4 3 3 4 4 4 4 4 5 5 5 6 6 9 6 6 7 7 7 6 7 6 7 7 7 7
3 4 3 2 2 5 1 1 2 3 1 3 5 8 8 6 2 11 9 12 12 11 16 16 15 10 14 16 17 16 19 20 20 20 19 19 19 15 11 9 7 7 7 7 7 7 7 6 6 5 5 4 3 3 3 3 1 2 3 3 3 3 3 3 3 4 4 5 5 5 4 4 4 3 4 5 5 5 5 5 5 5 6 6 7 6 7 7 7 7 7 7 7 6 7 7 7
4 4 2 2 3 5 3 0 2 5 4 6 6 5 6 9 6 11 13 19 4 5 5 5 12 6 11 13 16 17 19 21 22 22 21 20 18 16 13 11 10 9 8 7 7 7 7 7 6 6 5 5 4 4 4 3 2 2 3 3 2 3 3 3 3 3 4 5 5 5 5 5 5 5 5 5 6 5 5 5 5 5 6 5 6 6 7 7 7 7 7 7 7 7 7 7 7
3 2 2 2 4 7 1 1 3 5 4 5 1 3 7 7 11 3 14 21 12 5 3 0 2 6 12 15 18 21 22 23 24 23 22 21 19 18 15 13 11 8 8 9 8 7 7 8 7 7 5 5 5 5 4 4 3 3 3 3 3 3 2 3 3 3 3 4 6 6 6 5 5 5 6 5 6 5 6 5 5 5 5 5 5 5 6 6 6 6 7 8 8 8 8 8 7
5 5 3 1 2 6 2 2 2 3 2 1 2 5 6 8 4 3 16 17 15 8 4 2 4 8 11 14 17 18 18 19 20 19 15 14 14 13 11 9 10 10 11 10 8 8 9 8 8 7 6 6 5 5 4 3 3 3 3 3 3 2 3 3 3 3 4 4 5 6 6 5 5 5 5 5 5 5 5 5 5 4 4 4 5 4 5 6 5 6 6 7 7 7 8 8 8
7 3 2 1 4 1 0 2 2 3 1 2 4 9 3 1 4 12 23 15 13 10 7 6 7 9 12 16 17 18 18 20 19 18 19 13 11 14 13 12 11 12 11 10 10 8 8 9 8 7 7 6 5 5 4 4 3 3 3 3 3 2 3 3 3 3 3 3 3 5 5 4 4 5 5 5 6 5 5 5 4 4 4 3 4 4 5 5 5 5 6 6 7 7 7 7 8
0 2 2 4 1 3 1 4 1 1 4 4 7 10 3 2 2 12 3 2 7 8 10 8 9 12 13 13 14 16 17 19 20 16 12 13 12 14 14 13 13 13 12 12 10 9 8 9 8 7 6 5 5 4 4 4 3 3 3 3 2 3 2 2 2 2 2 2 3 4 3 4 4 4 5 5 5 5 5 4 4 4 3 3 4 4 4 5 5 5 6 6 7 7 7 7 7
1 1 2 6 6 5 5 4 4 2 4 6 6 11 1 2 3 17 3 3 6 9 9 9 11 12 12 14 14 14 15 15 13 14 19 18 15 15 16 15 15 13 13 13 10 9 9 10 9 8 7 6 5 5 5 4 3 3 3 2 2 2 2 2 2 2 2 2 2 3 3 3 4 4 4 5 5 5 5 5 5 5 5 4 4 4 6 5 5 6 6 6 7 7 7 7 7
1 3 5 3 3 6 7 8 2 3 4 5 3 7 13 8 13 23 5 5 6 7 9 10 12 12 12 12 12 12 14 13 13 14 19 18 14 13 16 15 14 14 10 12 11 10 11 10 9 8 7 6 6 5 4 4 3 3 2 1 2 1 1 1 1 1 1 1 1 2 2 3 3 4 4 5 6 5 5 6 5 5 5 5 6 6 7 6 5 6 6 7 6 7 7 7 7
1 2 3 6 6 9 4 2 2 5 2 4 3 10 7 18 23 14 6 6 5 6 9 10 10 10 10 11 11 12 12 13 15 17 16 15 14 14 16 15 15 12 10 10 11 12 9 7 6 6 7 7 6 5 4 4 3 3 2 2 2 1 1 0 1 0 1 0 0 1 1 2 3 4 4 5 5 5 6 5 5 5 5 7 7 6 6 6 6 7 7 7 6 7 7 7 8
3 2 2 4 4 3 4 3 5 6 3 5 3 8 12 7 11 8 7 8 9 10 11 11 10 10 10 10 11 12 14 15 17 17 15 15 12 12 15 14 15 14 10 11 13 13 11 9 7 6 7 7 7 6 5 4 4 3 3 2 2 1 1 1 1 1 1 1 1 1 1 2 3 4 4 5 5 5 6 5 5 4 5 6 6 5 6 6 6 7 7 7 7 7 7 8 8
1 3 4 2 5 1 3 4 7 7 3 4 6 10 15 11 5 6 4 6 8 12 12 12 10 10 11 11 12 12 13 14 15 15 16 15 13 12 15 15 15 15 14 12 12 12 12 11 9 8 9 8 7 7 6 5 5 4 3 2 2 2 1 1 1 2 2 2 2 2 2 2 3 4 4 5 5 5 6 6 5 4 5 5 5 5 5 6 6 7 7 7 8 8 8 9 8
1 5 7 5 3 3 4 7 4 3 3 4 12 9 11 10 2 3 2 5 7 10 13 13 13 12 12 12 11 12 11 13 14 16 16 15 13 12 13 15 15 16 14 14 14 13 12 11 11 10 10 10 9 8 6 6 4 4 3 3 2 2 2 2 2 2 2 2 2 2 2 2 3 4 4 5 5 6 6 6 6 5 5 5 5 5 5 5 5 6 6 6 7 8 9 11 10
5 2 6 2 6 2 4 4 3 2 6 8 11 8 17 17 4 5 4 7 7 9 14 15 12 11 12 11 12 12 13 13 16 18 19 17 13 15 13 13 15 15 13 15 14 14 13 12 11 10 9 9 8 7 7 6 5 4 3 3 3 3 3 3 3 2 3 3 3 3 3 3 4 4 5 5 5 6 7 7 7 6 5 5 4 5 5 5 6 6 7 7 7 8 8 9 11
5 3 5 8 5 9 10 5 4 5 5 10 10 15 21 22 20 10 7 9 9 14 15 16 14 12 12 12 12 13 13 14 18 16 18 17 15 14 13 14 14 15 12 15 14 13 11 11 9 10 9 9 8 8 7 6 5 4 3 2 3 4 3 4 3 3 3 4 4 4 4 4 4 5 5 5 5 6 6 7 7 6 5 5 4 5 5 6 5 6 8 8 7 7 8 10 10
10 7 8 6 9 8 5 4 3 6 6 9 14 14 17 21 19 17 12 11 11 17 17 15 15 13 14 13 12 12 13 17 14 12 15 15 14 14 13 13 12 13 13 14 15 14 12 11 10 9 10 9 8 8 7 6 5 5 5 4 4 4 4 4 4 4 4 4 4 4 5 5 5 4 5 5 5 6 6 7 7 7 5 5 5 5 5 5 7 8 9 8 10 8 8 8 9
2 1 3 9 10 13 6 4 3 2 3 15 18 17 18 22 20 19 19 6 10 16 19 18 13 12 14 13 13 13 15 18 8 12 13 15 15 13 13 12 12 14 14 15 15 15 14 13 12 12 11 10 9 9 8 7 7 6 4 5 5 5 5 5 5 5 5 5 5 5 5 5 5 5 5 5 6 6 7 7 8 7 5 5 5 5 6 8 8 8 8 8 9 9 8 6 7
7 6 5 10 7 12 2 2 4 3 5 8 7 10 16 19 18 19 16 17 20 20 22 20 18 14 13 14 14 15 16 7 8 11 13 13 13 14 13 12 13 17 16 17 17 16 15 15 14 12 11 11 10 9 8 7 7 6 6 5 5 5 5 5 5 5 6 5 6 6 5 6 6 6 6 6 6 7 7 7 7 7 5 5 5 6 8 8 9 8 7 8 6 8 8 6 7
3 7 5 6 11 6 9 3 4 3 4 11 9 14 17 20 20 21 18 21 20 22 18 19 17 14 13 12 14 14 11 14 12 14 13 14 15 16 14 13 14 17 17 18 17 17 16 15 13 13 11 11 10 9 8 7 6 5 5 4 4 4 4 3 3 4 4 5 6 6 6 6 6 6 7 6 6 6 7 8 7 6 6 5 6 6 7 8 7 8 8 7 8 7 7 6 6
6 5 5 12 2 2 7 3 2 4 5 8 10 17 17 20 20 22 20 18 21 19 15 16 14 18 17 15 12 11 15 14 16 16 16 15 15 15 15 15 16 16 16 17 17 18 14 13 13 13 11 11 9 9 8 7 6 5 5 3 3 3 3 3 5 5 6 7 7 7 6 6 7 7 7 7 6 7 8 8 7 6 5 5 6 6 7 8 7 7 7 8 8 11 7 7 5
7 9 10 11 7 6 7 4 4 4 5 2 11 14 15 13 13 8 2 4 10 16 11 15 15 15 14 7 8 13 17 16 14 14 15 15 16 18 20 18 15 17 16 16 16 16 11 15 14 13 11 11 9 9 9 8 7 6 5 4 3 4 4 5 5 6 7 7 6 6 7 7 7 7 7 7 7 8 8 8 7 6 6 5 6 7 7 7 7 7 8 8 8 8 12 9 8
6 9 14 12 3 8 1 3 7 6 5 3 5 13 13 4 7 5 2 2 6 7 8 15 15 11 10 14 16 14 15 14 14 15 17 18 18 17 16 16 17 15 15 15 14 15 13 14 14 13 11 10 10 11 11 9 8 8 7 7 6 6 6 6 7 7 6 6 6 4 5 6 7 7 7 7 7 7 8 8 7 6 6 5 5 6 7 8 8 8 7 7 9 9 10 11 11
4 6 4 11 9 1 1 2 1 5 6 2 3 4 18 7 6 8 5 4 9 3 6 13 10 9 10 12 12 13 13 12 13 12 13 16 17 17 18 18 19 18 16 13 14 15 15 14 14 14 12 10 10 11 13 10 9 8 9 8 6 6 6 5 4 3 3 4 3 5 5 6 7 7 7 7 7 7 8 8 7 6 6 6 6 7 7 8 8 8 7 7 8 8 9 11 12
7 3 1 4 4 6 6 4 5 9 3 3 3 6 15 14 10 7 8 7 6 7 9 13 17 10 10 11 11 12 12 12 11 14 16 17 17 20 21 20 18 18 15 14 14 14 17 16 15 15 11 11 10 11 13 11 10 9 9 8 7 6 7 5 4 4 4 4 5 6 6 6 6 7 7 7 7 8 8 8 7 6 6 7 6 7 8 8 8 8 8 9 9 9 10 11 12
0 0 1 4 4 4 5 4 6 4 6 8 9 8 8 12 5 10 11 13 10 17 18 16 18 17 7 9 10 12 13 12 12 12 16 17 19 19 18 18 18 17 15 15 16 15 15 14 14 14 13 12 11 14 12 12 10 9 9 8 8 7 6 5 4 4 4 4 6 6 7 7 7 8 8 8 8 8 8 7 6 6 6 7 7 7 8 8 10 10 10 9 9 10 10 11 12
2 4 6 6 5 5 2 3 4 6 1 9 9 12 8 21 10 6 2 6 12 14 15 16 16 13 8 6 8 10 9 9 11 14 14 15 15 15 16 15 15 16 13 14 13 13 13 13 14 16 15 12 12 14 13 13 12 9 9 9 10 8 6 5 5 5 5 5 6 7 7 7 6 6 6 7 8 8 8 7 6 7 7 7 7 8 9 10 10 11 11 11 11 12 11 12 13
9 4 4 2 3 2 1 1 3 3 10 9 12 17 13 16 3 10 11 9 13 12 9 9 9 7 10 8 8 8 9 9 10 12 12 12 11 12 13 17 15 13 11 14 13 14 13 13 15 17 16 12 13 15 14 14 12 11 10 10 10 9 8 6 6 6 6 6 6 6 6 6 6 6 6 7 8 8 7 6 6 6 7 7 8 9 9 9 9 10 10 12 13 14 13 13 14
4 3 2 1 3 3 3 1 3 4 10 4 5 12 18 12 3 6 5 3 10 12 13 13 10 8 9 8 7 8 8 8 8 9 10 10 10 12 12 15 15 15 14 16 14 14 14 14 15 18 17 15 14 14 14 13 12 12 10 10 10 9 9 7 8 7 6 7 7 7 6 6 7 6 6 7 7 6 6 5 5 6 7 7 8 8 9 9 9 10 10 10 11 13 13 13 14
2 4 1 2 3 2 4 4 4 8 9 2 2 6 6 23 19 3 5 5 7 9 9 9 9 8 7 6 6 5 6 6 7 8 8 10 12 13 15 16 15 16 17 19 17 15 15 15 18 19 18 17 15 15 15 15 13 12 11 11 10 8 9 9 8 7 6 6 6 6 6 6 6 6 6 7 7 7 5 5 5 5 6 7 8 9 10 11 11 11 11 13 13 14 12 14 14
7 8 5 3 5 3 6 5 1 5 3 2 4 2 13 13 9 17 16 13 11 11 13 11 9 8 6 1 3 3 5 6 7 7 8 10 11 12 13 15 16 14 16 17 17 16 15 14 18 19 18 17 15 15 16 15 14 12 11 10 9 8 8 8 8 7 7 6 6 6 7 6 6 7 7 8 6 6 5 5 6 7 8 9 10 11 11 12 12 12 12 13 14 13 13 15 16
11 3 6 6 3 2 6 5 7 10 7 2 4 2 7 2 3 11 21 21 16 12 11 10 8 10 5 3 1 2 4 6 6 7 9 10 11 12 12 14 14 14 16 16 16 16 14 15 17 20 18 18 17 16 14 15 13 12 11 10 9 8 7 7 7 7 7 7 7 7 7 6 7 7 7 7 7 7 7 6 7 8 8 9 10 11 11 12 12 13 13 14 13 12 14 14 15
4 1 3 0 9 4 8 3 3 4 7 9 7 9 2 6 4 1 3 3 8 12 17 10 11 11 8 5 7 8 7 7 7 7 8 10 10 11 11 12 13 13 17 15 17 16 16 18 18 20 20 18 17 16 15 14 13 11 11 11 10 9 7 7 6 6 6 7 7 7 7 7 7 7 8 8 8 7 7 7 7 8 9 10 11 12 13 12 13 13 13 13 14 11 14 16 15
7 6 8 6 5 7 5 1 3 1 2 17 4 10 12 6 11 11 5 7 10 12 15 13 15 15 10 8 9 10 9 8 7 9 8 9 9 11 12 13 12 13 14 17 20 19 21 18 17 20 19 16 16 16 15 14 12 12 12 11 10 9 9 9 7 8 7 7 7 7 7 7 8 8 8 7 8 7 6 7 8 9 9 10 12 12 13 13 13 13 13 14 15 14 15 16 15
10 6 6 5 1 4 2 7 1 3 7 14 1 17 19 7 9 6 7 9 9 13 14 13 13 9 9 10 11 10 9 8 8 9 8 9 10 12 12 12 15 16 18 17 20 17 16 16 19 20 18 19 17 15 14 13 13 12 11 11 10 10 8 8 8 7 7 7 7 6 7 7 8 7 7 7 7 7 6 7 8 9 10 11 12 12 13 13 13 13 14 14 14 14 15 14 14
3 2 2 5 4 4 2 1 5 6 8 8 14 18 16 20 12 7 11 14 15 17 14 10 10 10 12 12 13 11 7 5 7 9 8 9 10 12 13 14 14 14 15 16 15 15 15 14 16 18 19 17 16 13 12 11 11 9 8 10 10 9 8 7 7 7 6 7 7 7 7 7 7 8 8 7 7 6 6 6 7 9 9 11 12 12 12 12 13 13 13 13 14 14 14 15 14
3 2 1 4 3 3 7 7 2 2 11 5 22 21 21 1 6 14 13 16 14 14 12 14 13 13 11 10 10 9 8 8 9 8 8 9 11 12 13 13 14 16 15 13 15 13 17 16 15 15 13 13 13 13 12 12 11 9 8 8 8 8 7 7 6 6 6 7 7 6 7 8 8 7 7 7 6 6 6 7 7 8 10 11 12 12 12 13 13 13 13 13 13 14 16 16 16
6 5 6 3 2 3 3 2 3 5 6 9 11 16 20 2 10 12 14 16 14 11 11 9 10 12 12 11 9 9 10 9 9 9 9 10 10 10 10 10 10 10 10 10 13 16 16 14 16 16 17 15 14 13 12 11 10 10 10 10 9 8 8 6 6 6 7 6 6 6 6 6 6 7 7 7 6 6 7 8 9 9 10 11 12 12 11 11 12 14 13 15 15 15 16 15 16
11 14 12 15 10 6 5 9 3 2 4 9 4 17 22 4 7 7 2 4 6 8 9 8 8 10 10 9 10 10 8 9 10 9 8 7 7 8 8 8 8 9 11 13 12 12 15 16 16 15 14 13 15 13 12 11 9 9 10 9 8 7 6 6 6 6 6 6 5 6 6 6 7 7 6 6 7 6 7 8 9 10 11 11 12 13 12 11 12 13 14 12 13 15 15 17 17
Wind_Direction
227 155 129 163 249 265 245 141 233 142 247 190 144 207 124 192 52 167 179 132 189 115 137 146 167 171 209 318 271 47 38 238 9 202 25 70 109 79 54 24 15 10 346 347 5 12 29 37 34 43 47 50 52 54 52 51 50 50 50 51 50 50 49 47 46 46 45 44 43 42 42 45 45 44 43 43 41 41 35 33 27 23 22 17 10 3 5 357 348 345 339 335 339 342 347 337 330
168 139 128 224 334 279 170 328 273 190 224 191 200 201 141 163 186 203 181 185 112 134 148 136 137 88 51 12 51 107 111 31 7 47 98 115 130 79 58 33 23 12 351 6 19 20 39 41 34 45 49 52 54 55 55 54 52 52 52 50 50 50 49 49 49 48 46 45 42 42 43 43 41 40 37 37 38 38 35 33 29 22 19 15 16 14 12 6 9 0 358 352 348 348 350 348 340
130 194 149 211 171 310 87 236 246 212 243 251 147 191 113 177 202 194 187 174 110 121 129 120 118 109 154 120 194 231 171 51 96 89 80 146 164 93 60 41 37 10 20 8 15 35 52 40 34 45 52 52 55 56 57 56 55 55 55 53 52 50 49 49 49 50 50 48 46 44 42 41 40 40 36 34 35 36 35 34 30 23 19 16 12 10 10 8 10 3 6 5 10 8 4 357 351
32 343 275 207 178 266 206 196 264 245 249 316 242 162 179 189 191 147 96 113 125 132 137 148 174 44 253 205 208 65 79 153 115 121 136 183 38 103 79 53 7 76 46 17 27 51 49 43 44 52 53 56 55 57 58 59 59 58 56 55 53 53 50 49 49 48 48 48 47 47 46 43 41 39 36 35 32 34 32 31 29 27 25 19 16 12 10 7 3 4 5 4 13 16 8 4 0
287 52 310 272 269 180 257 258 291 256 258 174 338 151 190 198 159 129 124 132 137 146 177 147 133 66 342 345 86 257 111 76 154 225 103 78 113 100 105 69 94 88 69 42 43 53 58 41 47 54 58 57 56 57 57 57 59 59 58 57 56 53 53 52 51 50 49 48 47 46 46 45 45 43 40 37 35 33 29 27 23 18 19 16 13 15 10 11 10 10 9 10 14 19 8 359 357
124 113 39 283 288 7 237 210 209 227 282 36 239 177 190 185 155 143 137 147 154 170 324 190 293 159 191 186 344 258 115 184 123 142 156 120 120 126 113 141 98 92 78 69 47 53 53 46 55 56 59 60 59 58 57 56 56 56 57 57 55 54 53 52 52 51 50 49 48 47 46 44 45 44 42 39 37 35 31 28 26 25 23 17 12 9 6 4 4 8 8 6 11 16 6 360 354
154 168 103 122 137 251 262 246 251 249 105 286 340 116 181 163 144 138 144 150 203 255 194 205 166 119 227 140 180 244 13 40 189 134 180 129 132 132 144 125 116 98 79 65 62 63 50 48 56 62 61 61 61 61 59 58 56 56 55 54 53 53 52 51 50 50 50 49 47 46 44 44 42 41 40 38 36 33 30 27 27 26 26 24 19 15 11 8 5 3 3 5 8 8 6 2 357
72 281 66 239 165 247 235 256 260 245 95 310 22 317 169 151 148 157 161 168 182 202 186 219 205 246 74 188 216 94 61 303 69 113 120 140 136 138 143 136 120 88 77 73 66 60 59 47 56 60 62 63 64 62 62 60 59 57 56 54 53 52 51 50 49 48 48 47 46 45 43 42 41 40 38 37 34 31 28 26 24 24 23 22 20 18 14 11 8 6 5 3 6 7 3 359 356
58 288 123 251 218 195 262 244 265 51 324 205 244 319 339 159 167 163 166 190 89 210 160 183 185 199 140 159 194 93 132 127 124 126 134 137 144 141 127 122 104 91 80 73 70 65 64 46 54 57 62 65 65 65 64 62 62 61 58 56 54 53 51 50 49 48 47 46 45 43 42 41 39 38 37 36 32 30 27 24 22 22 21 19 17 15 14 12 9 7 6 4 2 359 358 358 357
129 288 184 254 337 236 255 240 233 215 238 78 273 185 175 161 174 186 171 184 189 167 162 151 175 244 124 185 144 182 175 156 143 136 143 141 140 142 120 99 93 97 89 79 71 69 66 50 52 56 60 64 64 66 65 64 64 62 61 60 58 55 53 50 49 48 47 46 45 43 42 40 38 36 36 33 30 27 25 22 20 21 19 18 15 12 11 10 8 8 6 3 1 359 356 354 353
199 91 9 230 222 253 241 254 218 148 211 135 223 188 185 172 174 186 188 177 133 175 129 153 180 226 191 187 230 41 131 157 163 157 153 144 146 145 128 101 89 85 91 69 68 75 83 72 55 53 59 60 63 65 65 65 65 64 62 61 60 58 56 53 51 49 47 46 44 43 41 39 38 37 35 33 30 27 25 23 19 18 18 16 12 10 9 7 4 4 4 3 360 357 355 353 351
217 200 177 241 246 256 306 286 287 223 174 201 200 159 171 177 178 192 195 198 184 182 175 178 190 146 206 204 206 151 154 171 174 153 152 152 151 139 129 122 106 96 91 91 81 79 82 78 77 61 57 57 61 62 62 64 62 63 61 60 58 58 56 55 53 52 50 47 44 42 39 38 36 36 34 33 30 26 24 21 17 17 16 14 11 8 8 6 2 1 359 359 357 356 354 353 350
279 94 214 249 273 254 0 272 277 305 237 214 190 157 150 181 196 204 197 208 177 182 207 196 38 198 215 198 63 142 178 179 168 153 153 163 147 138 133 121 120 115 109 109 105 98 89 94 84 76 67 71 61 60 62 62 63 62 60 58 58 56 55 53 51 50 49 48 47 44 42 40 39 37 36 34 32 27 23 20 15 16 14 12 8 7 6 3 1 359 356 356 354 353 351 350 347
252 237 228 244 65 283 261 297 50 240 227 155 119 131 171 180 207 227 188 208 193 206 55 164 166 200 257 204 170 189 192 174 163 155 158 151 143 139 133 132 134 138 137 145 129 115 104 94 91 89 84 80 83 79 65 59 64 64 63 61 60 59 57 55 52 49 46 45 43 42 43 43 42 38 38 35 35 31 24 20 14 15 11 9 6 3 2 360 358 356 353 352 350 350 348 345 342
238 178 210 303 223 254 183 246 279 229 258 147 134 151 170 205 36 206 206 212 211 69 113 219 182 151 232 183 196 195 177 170 162 157 153 148 147 150 147 152 155 154 157 154 140 137 118 108 102 94 86 85 81 78 80 66 59 63 62 62 61 60 59 55 52 49 42 39 35 34 31 35 33 34 27 29 25 27 23 17 11 12 10 7 4 0 358 355 353 352 350 348 346 345 343 338 333
126 177 211 238 245 254 182 232 189 265 240 157 135 158 172 128 217 192 210 318 94 102 163 185 208 240 14 219 35 183 161 160 159 157 153 153 157 158 165 172 171 162 164 162 148 138 119 113 111 103 93 86 85 85 84 81 68 66 65 63 62 61 57 55 51 45 44 32 28 23 25 21 27 30 20 20 16 18 18 10 7 8 7 5 1 357 355 353 350 347 346 343 341 339 337 330 323
238 272 204 218 256 196 178 215 161 244 93 126 129 169 184 185 164 300 10 250 213 182 199 211 195 141 226 36 30 156 156 154 151 159 161 165 169 173 180 183 176 168 171 172 164 144 131 120 121 110 101 98 92 91 87 83 72 84 79 69 67 61 59 57 51 50 37 40 21 21 18 28 32 31 24 14 10 14 16 5 4 4 4 3 358 354 352 351 348 344 342 340 337 332 329 316 308
238 217 244 239 263 228 194 218 197 20 286 158 178 190 200 188 159 167 171 188 238 130 213 207 256 248 248 24 349 173 151 155 162 167 176 177 182 181 186 186 183 179 174 169 165 153 146 133 129 133 119 106 104 100 96 94 100 75 70 73 66 70 61 63 57 47 41 31 21 24 25 27 22 33 26 13 11 9 22 2 1 359 359 359 356 348 347 346 345 341 339 338 333 329 320 313 321
237 174 237 277 181 281 180 263 233 214 101 157 181 197 215 210 154 161 200 198 192 212 221 217 235 234 212 226 176 169 161 165 174 182 181 184 188 188 185 179 188 174 178 172 168 168 156 144 151 132 127 125 116 112 110 106 97 91 86 84 93 74 70 55 57 51 41 31 26 23 25 26 10 27 26 6 336 345 15 0 360 358 357 356 352 339 340 341 339 337 337 336 329 325 322 328 324
113 248 252 246 238 290 230 223 227 193 92 155 178 194 215 145 176 130 222 204 189 221 211 204 227 230 211 181 167 171 173 176 183 187 190 192 192 191 187 181 185 184 178 177 164 163 163 154 146 138 135 139 140 114 118 107 98 91 75 71 69 70 58 59 57 48 41 33 27 26 21 13 0 13 7 5 331 6 17 7 0 355 359 359 351 343 342 349 335 335 334 333 328 341 333 326 324
118 228 245 325 29 267 192 193 215 138 264 205 191 126 206 192 184 176 199 225 225 231 225 203 210 221 201 165 170 173 180 184 188 195 196 196 198 198 195 188 185 179 175 165 161 167 166 159 154 143 144 139 134 130 124 110 111 104 85 78 66 60 51 51 48 51 44 33 30 23 13 8 358 8 9 4 2 3 1 2 2 3 2 358 354 354 352 347 343 342 340 338 340 333 330 326 324
158 259 1 14 98 252 76 166 88 174 294 191 161 171 208 107 158 214 200 220 240 216 224 220 232 224 165 167 177 177 184 187 192 196 199 197 195 195 193 185 180 173 163 174 173 162 168 165 162 151 148 142 137 128 119 119 145 100 86 69 74 59 59 50 45 43 40 33 25 16 8 9 2 9 8 5 0 359 360 2 0 1 357 356 357 353 354 347 343 344 339 339 334 330 325 320 318
237 183 241 215 228 269 35 149 146 171 171 181 183 200 96 182 214 214 221 229 229 60 59 227 230 193 174 164 164 181 187 192 194 198 197 198 198 197 191 184 176 176 174 180 168 166 167 164 163 165 153 142 138 129 131 122 102 96 78 68 66 68 62 52 50 43 43 36 23 24 10 6 5 6 5 2 1 356 359 357 357 356 357 356 356 351 350 346 342 340 340 335 330 324 320 318 314
269 273 145 227 181 229 45 341 117 210 229 220 75 88 207 178 238 187 231 237 241 91 90 115 246 160 148 165 179 185 190 192 198 200 198 200 196 195 190 187 184 174 178 177 172 167 170 169 166 168 159 156 150 146 131 127 109 102 111 121 93 65 59 61 55 47 40 40 34 22 12 8 3 1 0 356 354 353 353 349 347 350 354 351 348 346 345 341 334 333 331 328 326 324 322 319 314
212 240 177 178 202 244 280 281 222 205 238 25 202 207 225 203 256 29 245 241 234 210 138 128 163 171 173 182 187 192 195 198 201 200 200 204 200 192 187 189 183 177 184 176 172 172 171 168 173 170 159 162 156 149 133 124 126 119 105 98 89 67 71 65 55 50 41 36 37 25 18 6 -0 355 353 349 340 346 340 339 337 345 338 342 341 336 341 334 330 329 327 327 324 320 317 316 317
209 248 160 157 227 223 250 224 203 210 201 207 221 245 158 240 326 258 254 249 221 204 185 173 170 179 188 197 192 191 196 199 199 197 198 191 187 186 190 191 186 189 185 174 172 175 169 171 177 171 167 160 157 150 136 136 135 114 92 81 82 89 75 70 65 59 49 36 40 27 21 5 353 348 346 340 336 332 329 327 322 327 323 331 334 329 337 328 325 320 323 321 321 317 311 309 307
259 221 252 245 261 309 127 261 131 182 245 176 238 260 221 116 192 276 118 326 167 169 204 188 191 200 198 200 198 199 198 200 197 196 190 196 194 199 194 192 193 189 180 180 177 174 168 174 172 168 158 160 159 144 131 122 115 100 89 91 83 79 76 86 73 69 59 50 35 24 11 6 347 341 338 332 325 320 319 321 321 320 317 331 331 327 330 321 315 314 318 317 316 315 307 306 304
62 288 297 254 260 257 244 264 237 187 232 186 234 263 297 142 220 248 154 156 161 175 199 198 208 213 207 204 200 203 207 207 198 190 196 191 199 197 192 191 190 185 184 182 179 170 169 177 170 167 165 161 158 141 131 123 109 96 92 92 91 77 73 77 78 74 68 52 33 19 2 1 340 323 321 319 317 314 318 327 321 327 326 329 331 330 326 318 310 310 312 310 306 303 306 304 305
88 228 265 196 237 267 203 229 174 192 232 170 181 263 247 199 229 239 136 160 167 196 199 205 212 218 214 209 206 203 208 200 195 199 206 203 198 194 196 190 183 183 185 180 176 169 175 174 168 167 164 160 162 141 130 123 115 111 116 120 115 101 94 59 64 70 39 53 19 12 355 339 323 317 315 315 317 315 317 316 321 322 325 332 326 325 321 317 316 319 317 314 308 309 302 305 307
203 163 319 288 246 256 153 104 127 188 167 162 181 283 228 211 226 233 131 152 167 197 215 211 215 215 217 211 211 211 207 203 203 208 206 204 199 193 193 186 183 182 177 179 171 178 174 171 165 162 165 163 154 143 138 140 140 136 148 157 124 136 81 89 100 44 60 321 291 320 310 319 317 313 316 318 319 315 313 306 314 317 325 328 321 323 328 330 322 321 319 317 316 310 309 311 311
250 111 252 261 275 237 136 187 150 202 101 191 259 260 279 207 208 221 153 167 179 221 223 219 215 213 215 215 214 215 212 211 212 209 208 205 197 189 192 183 183 183 176 178 179 180 174 173 168 163 170 162 155 146 152 148 151 162 175 163 136 93 110 223 204 193 223 227 237 219 247 299 302 306 312 313 312 306 302 298 299 306 325 317 315 324 321 321 318 319 321 318 312 308 308 309 307
175 257 223 172 229 249 146 151 187 213 121 214 193 265 265 271 210 123 138 183 201 237 240 228 214 215 215 217 219 219 218 214 219 216 212 208 196 189 190 187 183 186 185 177 176 177 179 176 173 167 171 164 163 156 162 160 165 174 174 144 131 130 205 222 222 220 230 236 226 246 233 264 287 297 301 302 300 299 297 296 295 310 313 308 311 310 309 310 315 313 309 309 312 309 310 307 306
187 227 274 248 198 248 298 174 212 308 116 208 216 258 299 288 97 84 133 173 205 238 247 241 226 218 219 221 219 219 218 217 216 216 210 205 202 195 192 188 185 188 183 177 180 177 180 176 176 174 175 172 167 164 165 168 166 168 175 157 141 170 215 221 226 228 237 235 244 245 241 254 274 281 285 289 288 291 292 293 294 297 302 298 296 300 293 298 302 300 299 301 299 303 304 301 302
224 143 258 265 257 254 256 112 185 184 221 209 224 250 248 263 221 138 167 184 203 237 247 243 230 218 219 222 220 214 215 216 216 212 210 202 199 197 192 193 186 184 185 182 182 180 182 175 179 179 175 174 169 166 170 170 171 168 173 166 183 200 216 236 236 232 235 244 239 243 240 254 262 271 274 278 282 284 284 284 287 286 289 287 286 292 294 295 292 292 297 296 297 297 297 301 301
272 217 248 260 210 223 260 263 133 172 201 247 225 228 256 263 267 250 185 191 212 245 248 248 235 218 222 222 219 216 216 219 224 211 204 199 197 192 191 190 186 184 187 185 182 182 181 178 179 177 176 174 170 169 165 167 162 173 159 176 193 220 219 228 231 236 236 237 238 238 245 247 249 260 265 266 273 282 283 279 277 281 281 281 286 290 293 290 287 292 293 293 288 287 291 292 291
265 262 269 280 279 255 228 211 113 213 212 233 231 234 248 261 267 266 251 182 224 249 254 253 242 229 228 223 217 213 219 228 226 207 199 195 193 186 188 188 187 186 186 187 184 183 183 178 178 177 181 176 173 172 170 175 176 181 183 180 205 215 224 216 220 229 236 232 231 237 239 243 251 262 265 268 269 275 280 279 277 277 273 276 285 286 290 296 298 296 291 292 292 288 279 281 288
52 177 242 258 263 270 268 136 118 192 265 251 250 246 252 262 265 268 270 228 224 250 256 252 237 226 230 225 219 216 220 231 206 202 189 189 187 185 186 185 187 186 187 187 186 187 187 181 178 183 181 179 178 178 181 180 178 178 184 197 203 200 207 213 221 224 223 231 228 235 241 243 250 259 264 261 264 269 270 272 271 269 270 272 275 281 284 287 287 286 290 288 288 290 289 289 296
235 251 245 264 232 261 292 119 123 190 225 270 249 257 258 260 264 261 258 261 254 246 248 251 247 233 232 224 221 218 226 223 183 192 194 188 187 185 184 187 186 187 192 188 190 188 187 184 184 182 180 182 187 186 180 182 184 183 179 188 194 197 201 211 219 211 216 225 231 235 240 244 249 256 257 257 259 260 267 269 268 269 273 277 280 282 280 278 280 280 288 293 282 289 292 297 299
184 234 253 271 262 276 274 72 143 176 200 264 279 282 272 267 262 261 243 244 249 250 246 252 255 247 232 221 222 223 219 222 206 213 200 195 190 186 188 192 195 196 190 191 190 185 186 185 186 184 184 183 187 184 178 182 177 175 181 172 192 199 217 236 240 237 228 229 231 231 235 242 248 250 248 250 257 260 262 265 266 272 272 281 286 282 279 276 278 282 285 288 302 290 283 285 283
202 199 230 239 245 329 280 114 97 181 219 301 309 293 278 267 258 252 251 231 251 258 257 254 243 251 244 230 216 213 224 223 217 206 202 194 190 190 191 194 196 193 191 190 189 188 183 186 184 185 183 184 184 181 180 172 168 165 180 193 195 228 227 211 236 241 238 236 236 233 234 237 245 250 251 251 251 254 257 261 266 264 269 274 278 281 280 278 277 282 287 293 297 301 297 294 283
206 221 230 251 234 222 227 311 294 190 238 301 283 267 257 227 246 251 189 275 262 269 272 265 253 235 243 241 214 215 225 219 217 206 201 194 193 196 198 197 190 195 194 188 187 186 183 185 183 182 180 184 182 176 177 169 162 170 181 188 212 226 238 240 234 232 223 225 229 225 226 228 238 245 247 246 250 257 258 257 261 267 272 276 278 276 275 277 282 279 285 285 285 290 298 294 286
213 223 227 241 272 264 116 3 335 291 275 134 346 325 287 164 190 222 243 239 256 254 262 264 254 235 212 229 232 228 229 224 214 205 198 195 198 201 201 196 196 198 197 191 185 185 177 181 181 179 181 181 181 177 177 175 178 184 181 189 196 202 213 205 213 217 204 207 220 219 230 233 241 246 247 250 251 255 257 257 260 269 275 277 275 278 281 282 278 280 281 282 282 277 282 292 287
221 242 221 246 254 292 306 274 305 262 267 86 300 342 291 137 181 180 188 214 259 245 242 270 248 211 210 216 221 222 221 218 219 216 200 197 201 200 201 198 198 197 199 183 181 184 181 182 179 179 180 181 179 179 177 178 183 190 196 200 205 208 216 214 215 221 228 237 249 254 256 252 248 254 257 258 259 259 263 265 269 274 279 278 278 277 277 278 280 279 277 272 275 280 277 278 280
232 58 165 118 171 208 211 219 224 267 45 271 172 231 277 282 216 193 149 197 226 264 246 257 273 253 194 213 213 218 218 213 204 207 208 204 199 199 202 200 196 199 187 180 180 182 183 183 177 180 181 180 178 176 181 184 186 190 193 202 212 220 221 222 204 225 237 254 259 263 267 262 256 255 261 261 259 257 259 264 264 267 269 271 272 271 273 275 277 274 267 267 269 262 262 264 277
0 73 316 119 128 167 164 209 254 286 335 281 182 201 268 262 172 198 206 216 220 244 250 242 250 267 235 213 213 216 216 211 203 202 208 205 204 204 202 199 198 191 186 181 182 182 181 180 177 179 182 182 179 180 181 186 191 188 192 197 210 218 221 226 225 230 241 238 249 256 259 264 261 255 252 255 252 252 253 256 261 264 266 271 269 269 271 274 275 275 272 268 264 264 258 263 267
124 140 92 88 87 74 194 229 255 260 272 253 177 174 244 279 140 150 3 199 217 232 241 245 243 249 267 232 215 217 211 209 211 214 210 208 206 204 200 198 190 190 184 177 177 175 177 175 179 181 185 184 179 181 183 186 190 189 195 202 205 210 208 216 219 226 226 230 244 246 250 256 255 257 254 250 251 250 251 256 263 266 268 272 271 271 276 274 272 270 267 266 266 263 260 258 258
129 176 122 98 80 143 127 92 269 293 245 238 209 185 203 277 160 149 150 184 202 216 241 255 262 257 260 242 218 205 199 201 206 211 213 211 204 198 189 194 190 180 172 174 179 180 178 179 182 184 185 182 181 182 184 188 190 194 201 202 204 208 209 213 220 224 224 231 241 246 247 255 261 263 265 261 254 251 253 255 261 270 277 275 274 277 275 277 278 275 272 266 261 259 261 259 259
164 159 185 274 215 158 187 202 183 237 266 125 206 196 194 236 217 167 140 128 202 195 218 237 246 238 242 228 206 201 189 197 202 202 207 201 191 193 188 196 192 185 173 184 185 181 182 183 182 185 185 184 180 182 185 189 191 196 202 202 205 208 207 210 220 225 225 230 240 252 253 259 263 262 258 259 255 247 255 263 268 274 276 275 275 277 279 277 276 277 271 266 262 258 259 259 258
214 159 169 246 270 348 250 154 230 193 251 137 120 140 251 233 242 126 204 224 211 244 246 240 235 240 236 232 205 180 182 188 198 200 194 193 197 193 196 197 190 184 186 187 186 182 183 184 184 184 186 183 180 181 187 189 190 195 198 201 206 205 210 215 219 226 225 229 235 240 245 251 257 258 253 253 254 253 262 268 274 275 279 276 276 280 279 277 275 274 271 268 263 261 259 257 259
185 191 190 207 255 226 270 246 215 291 242 130 106 168 247 275 283 224 223 216 214 215 237 240 241 245 245 212 176 181 189 202 205 197 197 196 195 194 193 191 193 187 186 186 185 182 182 184 186 187 187 180 180 183 187 189 193 194 195 197 200 201 207 210 219 222 224 229 234 241 243 249 258 260 266 261 261 263 266 270 275 275 276 278 277 277 276 274 271 270 271 268 267 264 262 259 259
198 160 184 223 194 203 266 267 269 279 302 137 223 96 239 110 211 188 212 220 213 217 235 239 243 253 251 72 52 240 218 214 208 209 204 201 197 191 189 191 192 189 185 183 185 185 180 186 187 189 183 181 182 183 183 189 190 192 192 195 197 200 204 208 214 220 222 227 233 240 246 251 254 260 262 268 269 271 276 279 277 280 279 278 279 276 274 272 270 269 266 267 266 264 263 262 261
151 199 39 226 227 160 247 314 304 324 321 288 151 222 232 221 82 257 49 68 220 224 240 227 231 238 222 212 221 220 221 214 209 217 216 212 199 192 192 194 194 186 185 184 187 184 185 191 188 188 185 179 181 180 184 186 186 186 188 191 194 196 202 206 214 215 222 224 234 241 249 251 255 258 262 263 264 267 276 278 275 273 276 274 273 270 270 270 270 268 268 267 267 264 265 263 261
163 145 207 196 11 194 259 317 125 144 211 264 152 258 249 249 242 154 164 174 205 219 231 232 233 239 227 224 236 224 213 211 206 214 218 204 197 198 199 196 192 187 185 190 191 188 188 184 184 186 185 175 179 181 180 182 181 180 186 189 190 194 200 207 211 215 220 228 236 241 245 250 257 256 256 258 261 260 266 270 277 278 273 271 270 268 267 268 267 268 268 268 267 267 266 264 261
109 222 196 93 59 5 175 253 264 242 257 274 350 267 290 261 285 117 147 198 202 227 226 220 226 234 238 237 238 237 223 215 214 221 219 209 203 205 203 201 196 193 193 193 195 189 188 186 183 183 181 176 179 176 178 178 178 180 182 186 191 195 200 207 214 220 224 229 233 236 243 249 248 253 257 258 256 260 267 270 272 277 274 271 270 271 270 269 268 268 266 266 266 267 266 265 264
316 357 335 186 194 193 150 11 251 250 240 275 274 276 275 258 256 134 171 198 216 230 228 212 227 230 233 236 241 243 236 210 213 215 210 207 207 207 204 202 201 200 197 196 190 182 183 187 186 184 182 175 171 170 174 175 176 176 179 183 186 192 199 204 212 218 225 233 237 241 246 253 260 256 255 258 264 272 270 277 276 278 275 275 275 273 273 273 271 270 269 268 268 266 265 266 268
88 233 211 11 315 201 164 205 276 251 275 298 278 289 269 165 217 157 185 189 208 213 219 224 218 221 222 227 232 235 233 224 225 214 211 213 213 210 205 200 197 197 194 186 184 180 187 186 177 180 171 162 163 170 172 172 174 174 172 175 184 190 195 203 208 214 224 232 240 245 252 257 257 263 263 269 277 285 285 285 283 280 279 278 276 276 274 275 275 270 270 270 270 269 269 270 272
193 199 196 161 197 356 337 337 213 220 256 246 277 291 275 279 139 160 176 194 203 196 213 210 218 225 229 231 229 235 232 235 232 226 218 214 213 208 207 204 199 195 188 178 184 187 186 181 181 178 170 167 168 171 172 173 170 174 170 177 184 187 196 201 208 218 230 239 245 249 254 259 271 269 275 284 292 296 293 288 285 283 282 280 277 277 275 274 273 271 268 268 271 270 268 269 272
174 177 192 181 156 185 186 247 104 232 213 243 237 256 273 221 78 99 103 180 182 205 212 206 205 225 229 223 228 225 233 235 233 228 218 214 211 207 203 195 189 186 191 191 188 178 183 185 180 175 168 168 171 171 175 168 167 168 171 180 183 186 191 200 208 216 230 236 244 250 255 267 269 276 281 293 299 300 298 294 291 286 282 280 277 276 277 275 273 274 272 270 271 272 271 275 281